Regional Weather Roundup
Issued by NWS

Home | Current Version | Previous Version | Graphics & Text | Print | Product List | Glossary On
Versions: 1 2 3 4 5 6 7 8 9 10 11 12 13 14 15 16 17 18 19 20 21 22 23 24 25 26 27 28 29 30 31 32 33 34 35 36 37 38 39 40 41 42 43 44 45 46 47 48 49 50
000
ASUS43 KBIS 231620
RWRND

NORTH DAKOTA REGIONAL WEATHER ROUNDUP
NATIONAL WEATHER SERVICE BISMARCK ND
1100 AM CDT TUE SEP 23 2014

NOTE: "FAIR" INDICATES FEW OR NO CLOUDS BELOW 12,000 FEET WITH NO
SIGNIFICANT WEATHER AND/OR OBSTRUCTIONS TO VISIBILITY.


NDZ001>003-009>011-017-231700-
NORTHWEST NORTH DAKOTA

CITY           SKY/WX    TMP DP  RH WIND       PRES   REMARKS
WILLISTON      SUNNY     65  52  62 S6        29.87S
MINOT          SUNNY     66  55  67 S10       29.88F
MINOT AFB      SUNNY     66  57  74 S12       29.88F
$$

NDZ018>021-031>035-040>046-231700-
SOUTHWEST NORTH DAKOTA

CITY           SKY/WX    TMP DP  RH WIND       PRES   REMARKS
BISMARCK       CLOUDY    68  58  70 SE14      29.94S
DICKINSON      SUNNY     68  58  70 S12       29.88S
GARRISON         N/A     65  56  72 S13G20    29.90F
HETTINGER ARPT MOSUNNY   66  56  70 SE8       29.92S
$$

NDZ004>008-012>016-024-026-027-054-231700-
NORTHEAST NORTH DAKOTA

CITY           SKY/WX    TMP DP  RH WIND       PRES   REMARKS
GRAND FORKS    MOSUNNY   67  54  63 S13       30.02S
GRND FRKS AFB  SUNNY     66  55  66 S12       30.02S
DEVILS LAKE    SUNNY     68  54  60 SE15      29.95F
$$

NDZ022-023-025-028>030-036>039-047>053-231700-
SOUTHEAST NORTH DAKOTA

CITY           SKY/WX    TMP DP  RH WIND       PRES   REMARKS
FARGO          SUNNY     66  52  60 SE13      30.06R
JAMESTOWN      MOSUNNY   66  56  70 S17       30.00S
$$



USA.gov is the U.S. government's official web portal to all federal, state and local government web resources and services.